Weather History for KEAT - April, 2014

Change the Weather History Date:

Tuesday, April 22, 2014

  Actual Average Record
Temperature  
Mean Temperature 43 °F 47 °F  
Max Temperature 51 °F 59 °F 78 °F (2012)
Min Temperature 34 °F 35 °F 24 °F (2008)
Degree Days  
Heating Degree Days 22 18  
Month to date heating degree days 433 437  
Since 1 July heating degree days 6575 6445  
Cooling Degree Days 0 0  
Month to date cooling degree days 0 0  
Year to date cooling degree days 0 0  
Growing Degree Days 2 (Base 50)    
Moisture  
Dew Point 31 °F    
Average Humidity 0    
Maximum Humidity 0    
Minimum Humidity 0    
Precipitation  
Precipitation 0.13 in 0.04 in 0.22 in (1960)
Month to date precipitation 0.75 0.94  
Year to date precipitation 5.97 5.98  
Snow  
Snow 0.00 in 0.00 in - ()
Month to date snowfall T 1.7  
Since 1 July snowfall 31.0 53.4  
Snow Depth 0.00 in    
Sea Level Pressure  
Sea Level Pressure 29.73 in    
Wind  
Wind Speed 10 mph (NW)    
Max Wind Speed 22 mph    
Max Gust Speed 0 mph    
Visibility 10 miles    
Events Rain    
T = Trace of Precipitation, MM = Missing Value Source: NWS Daily Summary

Daily Weather History Graph

Daily Weather History Graph

Search for Another Location

Airport or City:

Trip Planner

Search our weather history database for the weather conditions in past years. The results will help you decide how hot, cold, wet, or windy it might be!

Date:

Astronomy

Apr. 22, 2014 Rise Set
Actual Time 5:59 AM PDT 8:00 PM PDT
Civil Twilight 5:26 AM PDT 8:33 PM PDT
Nautical Twilight 4:45 AM PDT 9:14 PM PDT
Astronomical Twilight 4:00 AM PDT 9:59 PM PDT
Moon 2:20 AM PDT (4/22) 12:39 PM PDT (4/22)
Length of Visible Light 15h 06m
Length of Day
14h 00m
Last Quarter, 45% of the Moon is Illuminated
Apr 22
Last Quarter
Apr 28
New
May 6
First Quarter
May 14
Full
May 21
Last Quarter

Hourly Weather History & Observations

Time (PDT) Temp. Windchill Dew Point Humidity Pressure Visibility Wind Dir Wind Speed Gust Speed Precip Events Conditions
12:55 AM 54.0 °F - 43.0 °F 66% 29.70 in 10.0 mi SE 6.9 mph - N/A   Overcast
1:55 AM 51.1 °F - 46.0 °F 83% 29.69 in 10.0 mi East 12.7 mph - 0.01 in Rain Light Rain
3:55 AM 50.0 °F - 45.0 °F 83% 29.66 in 10.0 mi ESE 10.4 mph - 0.01 in Rain Light Rain
4:55 AM 48.9 °F - 44.1 °F 83% 29.66 in 10.0 mi East 11.5 mph - 0.00 in Rain Light Rain
5:55 AM 48.9 °F - 43.0 °F 80% 29.66 in 10.0 mi East 6.9 mph - 0.01 in   Overcast
6:19 AM 48.0 °F - 43.0 °F 83% 29.66 in 10.0 mi NE 4.6 mph - 0.00 in Rain Light Rain
6:35 AM 48.9 °F - 43.0 °F 80% 29.67 in 10.0 mi Calm Calm - 0.01 in Rain Light Rain
6:55 AM 48.9 °F - 44.1 °F 83% 29.66 in 10.0 mi North 5.8 mph - 0.01 in Rain Light Rain
7:55 AM 48.9 °F - 41.0 °F 74% 29.67 in 10.0 mi WNW 9.2 mph - 0.02 in Rain Light Rain
8:55 AM 50.0 °F - 39.0 °F 66% 29.68 in 10.0 mi WNW 11.5 mph - 0.00 in   Overcast
9:55 AM 51.1 °F - 32.0 °F 48% 29.68 in 10.0 mi West 16.1 mph - N/A   Overcast
10:55 AM 54.0 °F - 30.9 °F 41% 29.70 in - West 18.4 mph 24.2 mph N/A   Unknown
11:55 AM 55.9 °F - 28.0 °F 34% 29.71 in 10.0 mi WNW 13.8 mph 25.3 mph N/A   Clear
12:55 PM 55.9 °F - 25.0 °F 30% 29.71 in 10.0 mi WNW 18.4 mph - N/A   Partly Cloudy
1:55 PM 57.9 °F - 18.0 °F 21% 29.72 in 9.0 mi NW 21.9 mph 31.1 mph N/A   Clear
2:55 PM 60.1 °F - 16.0 °F 18% 29.73 in 10.0 mi NW 18.4 mph 27.6 mph N/A   Clear
3:55 PM 60.1 °F - 12.9 °F 16% 29.75 in 10.0 mi NW 18.4 mph 26.5 mph N/A   Clear
4:55 PM 55.9 °F - 15.1 °F 20% 29.77 in 10.0 mi NW 17.3 mph - N/A   Partly Cloudy
5:55 PM 55.9 °F - 18.0 °F 23% 29.78 in 10.0 mi NW 19.6 mph - N/A   Clear
6:55 PM 55.0 °F - 21.0 °F 27% 29.78 in 10.0 mi WNW 16.1 mph - N/A   Clear
7:55 PM 51.1 °F - 23.0 °F 33% 29.82 in 10.0 mi WNW 8.1 mph - N/A   Clear
8:55 PM 48.0 °F - 25.0 °F 41% 29.83 in 10.0 mi NNW 4.6 mph - N/A   Partly Cloudy
9:55 PM 45.0 °F 41.2 °F 26.1 °F 48% 29.83 in 10.0 mi NNE 6.9 mph - N/A   Clear
10:55 PM 45.0 °F 41.2 °F 27.0 °F 49% 29.83 in 10.0 mi NNW 6.9 mph - N/A   Clear
11:55 PM 44.1 °F - 27.0 °F 51% 29.83 in 10.0 mi Calm Calm - N/A   Clear